Total_Precipitation_Accumulation
0.00 0.00 0.00 0.00 0.00 0.00 0.00 0.00 0.00 0.00 0.00 0.00 0.00 0.00 0.00 0.00 0.00 0.00 0.00 0.00 0.00 0.00 0.00 0.00 0.00 0.00 0.00 0.00 0.01 0.01 0.01 0.00 0.01 0.01 0.00 0.00 0.04 0.03 0.02 0.03 0.06 0.04
0.00 0.00 0.00 0.00 0.00 0.00 0.00 0.00 0.00 0.00 0.00 0.00 0.00 0.00 0.00 0.00 0.00 0.00 0.00 0.00 0.00 0.00 0.00 0.00 0.00 0.00 0.00 0.00 0.00 0.01 0.01 0.01 0.01 0.01 0.01 0.01 0.02 0.02 0.02 0.03 0.04 0.08
0.00 0.00 0.00 0.00 0.00 0.00 0.00 0.00 0.00 0.00 0.00 0.00 0.00 0.00 0.00 0.00 0.00 0.00 0.00 0.00 0.00 0.00 0.00 0.00 0.00 0.00 0.00 0.00 0.00 0.00 0.01 0.00 0.01 0.01 0.01 0.01 0.02 0.01 0.06 0.02 0.02 0.02
0.00 0.00 0.00 0.00 0.00 0.00 0.00 0.00 0.00 0.00 0.00 0.00 0.00 0.00 0.00 0.00 0.00 0.00 0.00 0.00 0.00 0.00 0.00 0.00 0.00 0.00 0.00 0.01 0.01 0.02 0.01 0.01 0.01 0.01 0.01 0.00 0.01 0.01 0.01 0.02 0.03 0.03
0.00 0.00 0.00 0.00 0.00 0.00 0.00 0.00 0.00 0.00 0.00 0.00 0.00 0.00 0.00 0.00 0.00 0.00 0.00 0.00 0.00 0.00 0.00 0.00 0.00 0.00 0.00 0.00 0.00 0.00 0.01 0.03 0.03 0.02 0.03 0.03 0.04 0.02 0.01 0.02 0.02 0.02
0.00 0.00 0.00 0.00 0.00 0.00 0.00 0.00 0.00 0.00 0.00 0.00 0.00 0.00 0.00 0.00 0.00 0.00 0.00 0.00 0.00 0.00 0.00 0.00 0.00 0.01 0.00 0.00 0.01 0.00 0.03 0.01 0.02 0.01 0.02 0.02 0.04 0.02 0.01 0.01 0.01 0.01
0.00 0.00 0.00 0.00 0.00 0.00 0.00 0.00 0.00 0.00 0.00 0.00 0.00 0.00 0.00 0.00 0.00 0.00 0.00 0.00 0.00 0.02 0.02 0.01 0.01 0.02 0.00 0.00 0.01 0.01 0.01 0.01 0.01 0.02 0.02 0.01 0.02 0.02 0.01 0.01 0.01 0.01
0.00 0.00 0.00 0.00 0.00 0.00 0.00 0.00 0.00 0.00 0.00 0.00 0.00 0.00 0.00 0.00 0.02 0.03 0.04 0.01 0.00 0.00 0.00 0.01 0.02 0.02 0.03 0.01 0.01 0.01 0.02 0.01 0.02 0.02 0.01 0.01 0.01 0.01 0.00 0.01 0.00 0.01
0.03 0.00 0.00 0.00 0.00 0.00 0.00 0.00 0.00 0.00 0.00 0.00 0.00 0.00 0.02 0.02 0.01 0.00 0.01 0.00 0.02 0.00 0.01 0.01 0.01 0.07 0.05 0.01 0.02 0.01 0.01 0.02 0.02 0.03 0.02 0.01 0.02 0.01 0.01 0.00 0.01 0.01
0.05 0.03 0.00 0.00 0.00 0.01 0.03 0.06 0.01 0.01 0.02 0.02 0.03 0.04 0.03 0.03 0.00 0.00 0.02 0.06 0.00 0.01 0.03 0.01 0.02 0.06 0.03 0.04 0.01 0.01 0.03 0.03 0.03 0.03 0.02 0.02 0.03 0.01 0.00 0.00 0.01 0.01
0.22 0.11 0.02 0.00 0.03 0.03 0.01 0.01 0.00 0.01 0.02 0.03 0.04 0.08 0.03 0.01 0.00 0.02 0.01 0.01 0.02 0.02 0.04 0.02 0.03 0.02 0.01 0.02 0.02 0.02 0.01 0.03 0.02 0.04 0.02 0.03 0.01 0.00 0.00 0.01 0.02 0.02
0.35 0.10 0.01 0.09 0.07 0.04 0.03 0.02 0.02 0.02 0.03 0.04 0.03 0.02 0.02 0.02 0.02 0.01 0.01 0.03 0.02 0.04 0.04 0.03 0.02 0.08 0.08 0.07 0.04 0.03 0.01 0.02 0.01 0.03 0.03 0.03 0.01 0.01 0.00 0.01 0.02 0.02
0.37 0.12 0.06 0.13 0.12 0.09 0.06 0.02 0.02 0.08 0.08 0.05 0.04 0.03 0.03 0.02 0.02 0.02 0.02 0.02 0.01 0.03 0.02 0.03 0.04 0.12 0.20 0.10 0.07 0.07 0.04 0.03 0.01 0.02 0.04 0.03 0.01 0.00 0.01 0.01 0.02 0.01
0.71 0.41 0.20 0.07 0.07 0.07 0.03 0.11 0.07 0.12 0.07 0.09 0.07 0.07 0.04 0.02 0.02 0.03 0.03 0.01 0.01 0.01 0.00 0.01 0.03 0.12 0.12 0.12 0.09 0.10 0.05 0.03 0.02 0.02 0.02 0.04 0.01 0.01 0.01 0.02 0.01 0.01
0.54 0.84 0.45 0.42 0.20 0.16 0.08 0.10 0.19 0.17 0.14 0.10 0.08 0.05 0.05 0.06 0.07 0.07 0.05 0.03 0.01 0.00 0.01 0.07 0.12 0.14 0.07 0.10 0.06 0.05 0.03 0.02 0.03 0.02 0.04 0.02 0.02 0.01 0.01 0.01 0.01 0.01
0.41 0.69 0.61 0.62 0.51 0.91 0.66 0.39 0.40 0.55 0.41 0.15 0.11 0.12 0.10 0.08 0.06 0.04 0.01 0.01 0.00 0.00 0.01 0.03 0.01 0.04 0.04 0.01 0.01 0.03 0.03 0.02 0.03 0.03 0.02 0.02 0.02 0.01 0.01 0.01 0.01 0.01
0.76 0.44 0.32 0.59 0.44 0.78 1.19 0.75 0.90 1.40 0.85 0.16 0.11 0.10 0.07 0.05 0.08 0.02 0.02 0.01 0.01 0.00 0.00 0.01 0.01 0.11 0.01 0.03 0.01 0.00 0.01 0.00 0.02 0.01 0.02 0.02 0.02 0.01 0.03 0.01 0.01 0.08
0.66 0.61 0.23 0.49 0.97 0.68 0.95 1.65 1.50 0.91 0.46 0.22 0.16 0.14 0.09 0.08 0.10 0.07 0.03 0.02 0.01 0.01 0.01 0.01 0.07 0.03 0.02 0.01 0.00 0.00 0.01 0.01 0.02 0.05 0.04 0.12 0.05 0.04 0.07 0.07 0.12 0.18
0.49 0.56 0.62 0.59 0.77 0.90 0.96 0.77 0.83 1.44 0.88 0.67 0.21 0.24 0.22 0.08 0.06 0.02 0.01 0.02 0.02 0.03 0.01 0.03 0.06 0.03 0.02 0.01 0.01 0.00 0.00 0.03 0.00 0.03 0.08 0.07 0.11 0.07 0.06 0.03 0.06 0.04
0.42 0.75 0.65 0.61 0.79 1.02 1.12 0.65 0.87 0.90 0.93 0.62 0.54 0.25 0.06 0.05 0.01 0.00 0.00 0.01 0.03 0.03 0.03 0.03 0.05 0.03 0.01 0.00 0.01 0.00 0.00 0.00 0.03 0.01 0.02 0.04 0.01 0.05 0.04 0.23 0.17 0.14
0.38 0.68 0.51 0.77 0.95 1.33 0.85 0.74 0.79 0.58 0.55 0.44 0.14 0.09 0.01 0.02 0.00 0.00 0.00 0.03 0.19 0.04 0.02 0.04 0.01 0.00 0.02 0.00 0.01 0.00 0.00 0.01 0.07 0.02 0.04 0.04 0.05 0.02 0.52 0.12 0.17 0.40
0.42 0.27 0.73 1.14 1.51 0.97 0.67 0.91 0.46 0.19 0.10 0.11 0.05 0.01 0.01 0.00 0.01 0.01 0.01 0.04 0.05 0.03 0.01 0.01 0.01 0.00 0.01 0.01 0.00 0.00 0.00 0.04 0.04 0.43 0.47 0.04 0.04 0.34 0.28 0.14 0.23 0.82
0.11 0.31 0.63 0.84 0.75 0.10 0.07 0.34 0.35 0.08 0.04 0.04 0.02 0.01 0.00 0.00 0.00 0.00 0.01 0.01 0.01 0.01 0.01 0.04 0.03 0.02 0.00 0.04 0.01 0.01 0.02 0.07 0.74 0.40 0.08 0.08 0.09 0.19 0.09 0.34 0.50 0.53
0.06 0.08 0.27 0.94 0.87 0.35 0.03 0.05 0.04 0.05 0.02 0.03 0.02 0.01 0.01 0.01 0.00 0.01 0.00 0.01 0.03 0.03 0.03 0.04 0.04 0.01 0.01 0.02 0.03 0.02 0.03 0.52 0.11 0.10 0.18 0.28 0.11 0.10 0.28 0.26 0.51 0.15
0.09 0.17 0.31 0.22 0.13 0.37 0.50 0.03 0.01 0.01 0.01 0.01 0.02 0.01 0.01 0.01 0.00 0.00 0.02 0.00 0.03 0.02 0.02 0.02 0.07 0.12 0.04 0.03 0.03 0.03 0.04 0.49 0.22 0.19 0.16 0.23 0.30 0.20 0.21 0.21 0.22 0.19
0.02 0.21 0.26 0.03 0.05 0.06 0.35 0.04 0.01 0.01 0.01 0.01 0.00 0.00 0.00 0.02 0.00 0.04 0.02 0.01 0.02 0.07 0.04 0.07 0.11 0.31 0.22 0.14 0.03 0.04 0.02 0.20 0.23 0.25 0.11 0.16 0.23 0.12 0.16 0.11 0.12 0.11